Torna al catalogo

ARASENE

AttivoScienzaHEO
NORAD 22654·PAYLOAD·🇫🇷 France

Lanciato May 12, 1993 da Guiana Space Centre

Loading…

Prossimi Passaggi (prossime 24 ore)

TLE

AggiornatoSource: Space-Track

Epoca: Sep 13, 2026, 20:26 UTC

1 22654U 93031B   26256.85142911 -.00000141  00000-0  00000-0 0  9994
2 22654   5.4451  44.4735 2865660 342.9611 239.8389  1.42202680168682

Traccia ARASENE in tempo reale con AllMySat

Download on the App Store